Overview Statistics Trail Chart Weather Telemetry Raw packets
 

This is the latest recevied weather packets stored in our database for station/object KGRR-WX. If no packets are shown the sender has not sent any weather packets the latest 10 day(s).

<< 29 30 31 32 33 34 35 >>
Time Temp. Humidity Pressure Rain* Wind** Luminosity Snow
1787904007 12.78° C 74% 990 hPa 0 mm - - -
1787903104 12.78° C 77% 989.6 hPa 0 mm - - -
1787902211 12.78° C 77% 989.6 hPa 0 mm - - -
1787901305 13.33° C 77% 989.6 hPa 0 mm - - -
1787900406 13.89° C 76% 989.7 hPa 0 mm - - -
1787899510 13.89° C 71% 989.2 hPa 0 mm - - -
1787898611 13.89° C 71% 989.2 hPa 0 mm - - -
1787897705 14.44° C 71% 989.2 hPa 0 mm - - -
1787896812 14.44° C 71% 989.2 hPa 0 mm - - -
1787895911 15° C 69% 988.9 hPa 0 mm - - -
1787895005 15° C 64% 989.1 hPa 0 mm - - -
1787894107 15.56° C 64% 989.1 hPa 0 mm - - -
1787893205 15.56° C 64% 989.1 hPa 0 mm - - -
1787892305 15.56° C 64% 989 hPa 0 mm - - -
1787891410 16.11° C 60% 989 hPa 0 mm - - -
1787890504 16.67° C 60% 989 hPa 0 mm - - -
1787889606 16.67° C 60% 989 hPa 0 mm - - -
1787888711 16.67° C 61% 989 hPa 0 mm - - -
1787887805 17.22° C 64% 989.2 hPa 0 mm - - -
1787886905 17.78° C 64% 989.2 hPa 0 mm - - -
1787886013 17.78° C 64% 989.2 hPa 0 mm - - -
1787885105 18.33° C 65% 988.3 hPa 0 mm - - -
1787884206 18.33° C 65% 988.8 hPa 0 mm - - -
1787883309 18.89° C 65% 988.8 hPa 0 mm - - -
1787882405 19.44° C 65% 988.8 hPa 0 mm - - -

* Rain latest hour (hover to see other rain measurements)
** Current wind speed in m/s (hover to see current wind gust speed)